Date String (YYYY-MM-DD hh:mm:ss) UTC,Instrument flags,Ambient pressure (hPa),Sample flow (lpm),Bypass flow (lpm),Sample temperature (°C),Ambient temperature (°C),ASC tube jacket temperature (°C),LED temperature (°C),Box temperature (°C),Sample RH (%),Span deviation,Mass concentration (μg/m³),Mass concentration (μg/m³),Mass concentration (μg/m³)
DateTimeUTC,F1_M11,P_M11,Q1_M11,Q2_M11,T1_M11,T2_M11,T3_M11,T4_M11,T5_M11,U1_M11,ZSPAN_M11,X0_M11,X2_M11,X1_M11
2022-11-04 14:00:00,,0822.4,5.01,0.00,22.6,21.3,00.0,31.3,24.5,15.5,0000.0,0009.57,0008.31,0008.18
2022-11-04 14:01:00,,0822.4,5.01,0.00,22.6,21.3,00.0,31.3,24.5,15.5,0000.0,0009.52,0008.28,0008.16
2022-11-04 14:02:00,,0822.3,4.98,0.00,22.6,21.2,00.0,31.3,24.5,15.5,-000.6,0009.51,0008.28,0008.16
2022-11-04 14:03:00,,0822.4,4.99,0.00,22.6,21.2,00.0,31.3,24.5,15.5,-000.9,0009.75,0008.30,0008.18
2022-11-04 14:04:00,,0822.4,5.00,0.00,22.6,21.1,00.0,31.3,24.4,15.5,-000.3,0010.07,0008.32,0008.18
2022-11-04 14:05:00,,0822.4,4.99,0.00,22.6,21.0,00.0,31.3,24.4,15.5,-002.0,0010.11,0008.34,0008.19
2022-11-04 14:06:00,,0822.4,5.00,0.00,22.5,21.1,00.0,31.3,24.4,15.5,-002.4,0010.12,0008.32,0008.16
2022-11-04 14:07:00,,0822.4,5.00,0.00,22.5,21.1,00.0,31.3,24.4,15.5,-002.8,0010.13,0008.30,0008.14
2022-11-04 14:08:00,,0822.4,5.01,0.00,22.5,21.1,00.0,31.3,24.4,15.5,-002.7,0010.07,0008.25,0008.09
2022-11-04 14:09:00,,0822.5,5.00,0.00,22.5,21.1,00.0,31.3,24.4,15.5,-002.9,0010.07,0008.22,0008.06
2022-11-04 14:10:00,,0822.4,5.00,0.00,22.5,21.1,00.0,31.3,24.3,15.6,-003.3,0010.05,0008.19,0008.03
2022-11-04 14:11:00,,0822.4,5.01,0.00,22.5,21.1,00.0,31.3,24.3,15.6,-003.2,0009.96,0008.17,0008.01
2022-11-04 14:12:00,,0822.4,5.00,0.00,22.5,21.1,00.0,31.3,24.3,15.6,-002.8,0010.02,0008.20,0008.04
2022-11-04 14:13:00,,0822.4,5.01,0.00,22.5,21.1,00.0,31.3,24.3,15.6,-003.0,0010.05,0008.21,0008.04
2022-11-04 14:14:00,,0822.5,4.98,0.00,22.5,21.1,00.0,31.3,24.3,15.7,-003.3,0009.85,0008.21,0008.04
2022-11-04 14:15:00,,0822.5,5.00,0.00,22.5,21.1,00.0,31.3,24.3,15.7,-003.1,0009.67,0008.24,0008.05
2022-11-04 14:16:00,,0822.5,5.01,0.00,22.5,21.1,00.0,31.3,24.3,15.7,-002.4,0009.66,0008.24,0008.05
2022-11-04 14:17:00,,0822.5,5.01,0.00,22.5,21.1,00.0,31.3,24.3,15.8,-001.8,0009.73,0008.28,0008.07
2022-11-04 14:18:00,,0822.6,5.00,0.00,22.5,21.1,00.0,31.3,24.3,15.8,-001.4,0009.76,0008.30,0008.08
2022-11-04 14:19:00,,0822.6,4.98,0.00,22.5,21.1,00.0,31.3,24.3,15.8,-001.2,0009.79,0008.33,0008.10
2022-11-04 14:20:00,,0822.6,5.00,0.00,22.4,21.1,00.0,31.3,24.3,15.9,-000.9,0009.85,0008.40,0008.16
2022-11-04 14:21:00,,0822.6,5.00,0.00,22.4,21.0,00.0,31.3,24.3,15.9,-000.6,0009.88,0008.44,0008.21
2022-11-04 14:22:00,,0822.6,5.00,0.00,22.4,21.0,00.0,31.3,24.3,15.9,-000.6,0009.87,0008.44,0008.20
2022-11-04 14:23:00,,0822.6,5.01,0.00,22.4,21.0,00.0,31.3,24.3,16.0,-000.4,0009.87,0008.42,0008.18
2022-11-04 14:24:00,,0822.6,4.99,0.00,22.5,21.2,00.0,31.2,24.4,16.0,-000.1,0009.92,0008.39,0008.14
2022-11-04 14:25:00,,0822.7,4.99,0.00,22.5,22.0,00.0,31.2,24.6,16.0,0000.2,0009.89,0008.35,0008.11
2022-11-04 14:26:00,,0822.7,5.01,0.00,22.6,22.5,00.0,31.3,24.7,15.9,-000.2,0009.78,0008.28,0008.06
2022-11-04 14:27:00,,0822.7,5.00,0.00,22.7,22.3,00.0,31.3,24.7,15.9,-000.4,0009.77,0008.25,0008.04
2022-11-04 14:28:00,,0822.6,5.01,0.00,22.7,22.1,00.0,31.3,24.7,15.9,-000.6,0009.73,0008.21,0008.00
2022-11-04 14:29:00,,0822.6,5.01,0.00,22.7,21.9,00.0,31.3,24.7,16.0,-000.5,0009.85,0008.23,0007.98
2022-11-04 14:30:00,,0822.6,5.01,0.00,22.7,21.8,00.0,31.4,24.6,16.0,-001.0,0009.88,0008.22,0007.97
2022-11-04 14:31:00,,0822.6,5.00,0.00,22.7,21.7,00.0,31.4,24.6,16.0,-000.7,0009.89,0008.20,0007.93
2022-11-04 14:32:00,,0822.7,5.00,0.00,22.7,21.7,00.0,31.4,24.6,16.0,-000.1,0009.88,0008.18,0007.90
2022-11-04 14:33:00,,0822.6,4.99,0.00,22.7,21.6,00.0,31.4,24.6,16.0,-000.2,0009.93,0008.18,0007.90
2022-11-04 14:34:00,,0822.7,5.00,0.00,22.7,21.5,00.0,31.4,24.6,16.1,-000.3,0009.88,0008.17,0007.89
2022-11-04 14:35:00,,0822.7,5.01,0.00,22.7,21.3,00.0,31.4,24.5,16.1,-000.8,0009.87,0008.19,0007.90
2022-11-04 14:36:00,,0822.7,5.01,0.00,22.6,21.2,00.0,31.4,24.5,16.1,-000.8,0009.90,0008.21,0007.93
2022-11-04 14:37:00,,0822.6,4.99,0.00,22.6,21.2,00.0,31.4,24.5,16.2,-000.9,0009.90,0008.22,0007.95
2022-11-04 14:38:00,,0822.6,5.00,0.00,22.6,21.2,00.0,31.4,24.5,16.2,-001.2,0009.91,0008.23,0007.96
2022-11-04 14:39:00,,0822.6,5.01,0.00,22.6,21.2,00.0,31.4,24.5,16.3,-001.4,0009.91,0008.25,0007.99
2022-11-04 14:40:00,,0822.6,4.98,0.00,22.6,21.2,00.0,31.4,24.5,16.3,-001.1,0009.95,0008.24,0008.00
2022-11-04 14:41:00,,0822.6,5.01,0.00,22.6,21.3,00.0,31.4,24.5,16.3,-000.6,0010.03,0008.26,0008.03
2022-11-04 14:42:00,,0822.7,5.01,0.00,22.6,21.3,00.0,31.4,24.5,16.4,-001.3,0010.04,0008.28,0008.06
2022-11-04 14:43:00,,0822.7,5.00,0.00,22.6,21.3,00.0,31.4,24.5,16.5,-002.2,0010.08,0008.32,0008.09
2022-11-04 14:44:00,,0822.7,5.01,0.00,22.6,21.3,00.0,31.4,24.5,16.5,-002.0,0010.09,0008.35,0008.13
2022-11-04 14:45:00,,0822.7,5.00,0.00,22.6,21.3,00.0,31.4,24.5,16.6,-001.8,0010.15,0008.40,0008.16
2022-11-04 14:46:00,,0822.7,4.99,0.00,22.6,21.3,00.0,31.4,24.5,16.6,-001.5,0010.13,0008.42,0008.19
2022-11-04 14:47:00,,0822.7,5.01,0.00,22.6,21.3,00.0,31.4,24.5,16.7,-000.7,0010.10,0008.43,0008.21
2022-11-04 14:48:00,,0822.7,5.01,0.00,22.6,21.3,00.0,31.4,24.5,16.8,0000.4,0010.17,0008.47,0008.25
2022-11-04 14:49:00,,0822.7,4.98,0.00,22.6,21.3,00.0,31.4,24.5,16.9,0000.6,0010.18,0008.50,0008.27
2022-11-04 14:50:00,,0822.7,5.01,0.00,22.6,21.3,00.0,31.4,24.5,16.9,0000.9,0010.21,0008.51,0008.28
2022-11-04 14:51:00,,0822.7,5.01,0.00,22.6,21.3,00.0,31.4,24.5,17.0,0000.1,0010.20,0008.52,0008.29
2022-11-04 14:52:00,,0822.7,5.00,0.00,22.6,21.3,00.0,31.4,24.5,17.0,-000.1,0010.07,0008.54,0008.29
2022-11-04 14:53:00,,0822.8,4.99,0.00,22.6,21.3,00.0,31.4,24.5,17.1,-000.2,0010.06,0008.52,0008.27
2022-11-04 14:54:00,,0822.8,4.99,0.00,22.6,21.3,00.0,31.4,24.4,17.2,-000.4,0009.99,0008.48,0008.25
2022-11-04 14:55:00,,0822.8,5.01,0.00,22.6,21.3,00.0,31.4,24.4,17.3,-000.7,0010.02,0008.45,0008.22
2022-11-04 14:56:00,,0822.9,5.01,0.00,22.6,21.3,00.0,31.4,24.4,17.3,-001.0,0009.94,0008.40,0008.18
2022-11-04 14:57:00,,0822.9,5.00,0.00,22.6,21.2,00.0,31.4,24.4,17.4,-001.2,0009.87,0008.33,0008.12
2022-11-04 14:58:00,,0822.9,4.99,0.00,22.6,21.2,00.0,31.4,24.5,17.3,-001.5,0009.82,0008.24,0008.02
2022-11-04 14:59:00,,0822.8,5.00,0.00,22.6,21.2,00.0,31.4,24.5,17.3,-002.0,0009.69,0008.11,0007.88
